Weather History for Marathon, FL

Change the Weather History Date:

Tuesday, March 15, 2011

  Actual Average Record
Temperature  
Mean Temperature 75 °F 74 °F  
Max Temperature 81 °F 79 °F 88 °F (2008)
Min Temperature 69 °F 68 °F 60 °F (2013)
Degree Days  
Heating Degree Days 0 0  
Month to date heating degree days 1 0  
Since 1 July heating degree days 177 75  
Cooling Degree Days 10 9  
Month to date cooling degree days 143 125  
Year to date cooling degree days 516 507  
Growing Degree Days 24 (Base 50)    
Moisture  
Dew Point 59 °F    
Average Humidity 63    
Maximum Humidity 78    
Minimum Humidity 48    
Precipitation  
Precipitation 0.00 in 0.08 in 0.25 in (2012)
Month to date precipitation 0.52 1.14  
Year to date precipitation 2.94 4.96  
Snow  
Snow 0.00 in - - ()
Month to date snowfall 0.0  
Since 1 July snowfall 0.0  
Snow Depth 0.00 in    
Sea Level Pressure  
Sea Level Pressure 30.18 in    
Wind  
Wind Speed 7 mph (East)    
Max Wind Speed 13 mph    
Max Gust Speed 17 mph    
Visibility 10 miles    
Events      
T = Trace of Precipitation, MM = Missing Value Source: NWS Daily Summary

Daily Weather History Graph

Daily Weather History Graph

Search for Another Location

Airport:

Trip Planner

Search our weather history database for the weather conditions in past years. The results will help you decide how hot, cold, wet, or windy it might be!

Date:

Astronomy

Mar. 15, 2011 Rise Set
Actual Time 7:33 AM EDT 7:33 PM EDT
Civil Twilight 7:10 AM EDT 7:55 PM EDT
Nautical Twilight 6:44 AM EDT 8:22 PM EDT
Astronomical Twilight 6:17 AM EDT 8:48 PM EDT
Moon 3:25 PM EDT (3/15) 4:09 AM EDT (3/15)
Length of Visible Light 12h 45m
Length of Day
11h 59m
Waxing Gibbous, 77% of the Moon is Illuminated
Mar 15
Waxing Gibbous
Mar 19
Full
Mar 26
Last Quarter
Apr 3
New
Apr 11
First Quarter

Hourly Weather History & Observations

Time (EDT) Temp. Heat Index Dew Point Humidity Pressure Visibility Wind Dir Wind Speed Gust Speed Precip Events Conditions
12:53 AM 70.0 °F - 55.0 °F 59% 30.21 in 10.0 mi ENE 4.6 mph - N/A   Clear
1:53 AM 70.0 °F - 60.1 °F 71% 30.18 in 10.0 mi NE 8.1 mph - N/A   Clear
2:53 AM 69.1 °F - 62.1 °F 78% 30.17 in 10.0 mi NNE 6.9 mph - N/A   Partly Cloudy
3:53 AM 69.1 °F - 62.1 °F 78% 30.16 in 10.0 mi NNE 8.1 mph - N/A   Clear
4:53 AM 69.1 °F - 62.1 °F 78% 30.14 in 10.0 mi NE 8.1 mph - N/A   Partly Cloudy
5:53 AM 70.0 °F - 61.0 °F 73% 30.14 in 10.0 mi ENE 5.8 mph - N/A   Mostly Cloudy
7:53 AM 71.1 °F - 55.9 °F 59% 30.16 in 10.0 mi East 5.8 mph - N/A   Clear
8:53 AM 73.0 °F - 55.0 °F 53% 30.17 in 10.0 mi East 5.8 mph - N/A   Scattered Clouds
9:53 AM 75.0 °F - 55.9 °F 51% 30.19 in 10.0 mi ESE 6.9 mph - N/A   Overcast
10:53 AM 78.1 °F - 57.0 °F 48% 30.21 in 10.0 mi ESE 6.9 mph - N/A   Clear
11:53 AM 79.0 °F - 57.9 °F 48% 30.22 in 10.0 mi ESE 5.8 mph - N/A   Partly Cloudy
12:53 PM 79.0 °F - 59.0 °F 50% 30.21 in 10.0 mi East 9.2 mph - N/A   Clear
1:53 PM 80.1 °F 80.9 °F 60.1 °F 50% 30.19 in 10.0 mi Variable 6.9 mph - N/A   Partly Cloudy
2:53 PM 80.1 °F 80.9 °F 60.1 °F 50% 30.17 in 10.0 mi ESE 5.8 mph - N/A   Clear
3:53 PM 79.0 °F - 60.1 °F 52% 30.15 in 10.0 mi Variable 6.9 mph - N/A   Clear
4:53 PM 78.1 °F - 61.0 °F 56% 30.14 in 10.0 mi East 10.4 mph 16.1 mph N/A   Clear
5:53 PM 77.0 °F - 60.1 °F 56% 30.15 in 10.0 mi East 10.4 mph - N/A   Clear
6:53 PM 75.0 °F - 60.1 °F 60% 30.17 in 10.0 mi ENE 9.2 mph - N/A   Partly Cloudy
7:53 PM 73.0 °F - 60.1 °F 64% 30.17 in 10.0 mi ENE 8.1 mph - N/A   Clear
8:53 PM 73.0 °F - 61.0 °F 66% 30.19 in 10.0 mi East 5.8 mph - N/A   Clear
9:53 PM 73.0 °F - 61.0 °F 66% 30.20 in 10.0 mi East 6.9 mph - N/A   Clear
10:53 PM 72.0 °F - 62.1 °F 71% 30.20 in 10.0 mi East 6.9 mph - N/A   Clear